Wind_Speed
16 15 13 12 11 11 10 8 7 6 4 3 3 4 4 5 5 5 6 7 7 6 6 6 6 6 6 6 6 6 6 5 5 6 6 6 6 6 5 6 7 7 8 7 5 3 2 3 6 5 4 4 1 1 2 4 4 4 5 6 8 8 9
16 13 14 15 13 12 11 9 8 6 5 4 4 5 5 5 6 6 7 7 7 7 7 7 8 8 8 8 7 7 7 7 7 6 6 6 6 5 5 5 6 6 6 6 6 5 5 2 3 2 4 6 5 3 2 4 5 5 5 6 8 8 10
17 14 14 16 15 13 11 10 9 7 5 4 5 6 6 6 7 7 7 7 8 8 8 9 9 9 9 10 9 9 9 8 8 8 7 7 6 6 5 5 5 5 5 5 6 5 5 4 1 1 1 3 4 5 3 3 5 4 4 5 7 8 10
20 19 18 17 15 14 13 11 9 7 6 5 6 6 6 7 7 8 8 8 9 9 9 9 9 10 10 10 10 10 10 10 9 10 10 9 9 8 8 7 7 6 5 5 6 5 5 4 2 1 1 3 2 4 4 2 3 2 5 6 7 9 10
20 20 21 20 18 17 16 13 10 9 8 7 7 7 7 7 8 8 8 9 9 9 9 9 10 10 10 10 10 10 10 10 9 9 10 10 9 9 9 8 8 8 7 6 6 6 5 5 4 3 3 4 3 1 3 2 1 3 7 9 9 9 10
19 19 19 20 18 17 17 15 13 11 10 10 10 9 8 8 9 9 8 9 9 9 10 10 10 10 9 9 9 9 9 9 9 9 9 9 8 8 8 8 8 8 8 7 7 7 6 6 6 5 5 4 3 3 2 3 3 5 8 11 10 10 12
20 19 18 18 17 15 15 15 14 13 11 11 11 11 10 10 9 9 9 10 10 10 10 11 10 10 10 10 10 10 10 10 10 10 9 9 9 9 8 8 8 8 8 8 7 8 7 7 7 7 7 4 2 5 5 4 6 7 10 12 10 11 14
21 20 18 18 17 15 15 15 15 14 13 12 12 12 12 11 11 11 11 11 11 11 11 11 11 10 10 10 10 10 10 10 10 10 10 10 10 10 9 9 9 8 8 8 7 8 8 8 7 7 8 5 2 4 5 5 7 8 11 13 10 12 15
23 22 19 18 17 16 16 16 15 13 13 13 13 13 13 12 12 12 12 11 11 11 11 11 11 10 10 10 10 10 10 10 10 10 10 10 10 10 9 9 9 9 8 8 7 7 7 7 7 7 8 7 5 4 4 4 5 7 11 13 11 12 15
23 22 19 18 18 18 17 15 15 14 13 14 15 14 13 13 13 13 13 12 12 11 11 11 11 11 10 10 10 10 10 10 9 9 9 9 9 9 9 9 9 8 8 7 7 7 6 7 7 7 8 9 7 5 4 4 4 6 11 13 12 14 16
23 22 20 20 20 19 17 15 15 15 16 15 15 15 14 14 14 13 13 13 12 12 12 11 11 11 10 10 10 10 10 9 9 9 9 9 9 9 9 9 8 7 7 6 6 6 6 6 6 6 7 8 8 7 5 5 4 7 12 13 13 15 17
23 22 21 22 20 18 18 17 16 16 16 16 16 16 15 15 14 14 13 13 13 12 12 12 11 11 10 10 10 9 9 9 9 10 9 9 9 9 9 8 7 6 5 5 5 5 6 5 6 6 6 6 7 7 6 6 4 6 10 13 14 15 16
23 22 22 21 19 17 17 17 16 16 16 16 16 16 15 15 15 14 14 14 13 13 13 12 11 11 11 10 10 9 9 9 10 10 9 9 9 9 8 7 6 5 4 4 4 4 4 5 5 6 5 5 5 6 7 6 5 7 10 12 14 15 15
24 21 22 21 18 17 17 17 17 16 16 16 16 16 15 15 15 15 14 14 14 13 13 12 12 11 10 10 10 10 10 10 10 10 10 10 9 9 8 8 7 6 5 4 4 4 4 4 4 5 5 5 5 6 7 7 7 9 11 12 14 14 15
23 21 21 20 18 18 18 17 16 16 16 16 16 16 16 16 15 15 15 14 14 14 13 13 12 11 11 11 11 10 10 10 10 10 10 10 9 9 8 8 7 6 5 5 4 4 4 4 4 5 5 5 5 6 7 8 8 10 12 13 14 15 15
22 22 23 21 19 18 18 17 17 16 16 16 16 16 16 16 16 15 15 15 14 14 13 13 12 11 12 12 11 10 10 10 10 10 10 10 9 9 8 7 6 5 4 4 4 4 4 4 4 5 4 4 5 6 7 7 8 10 13 14 14 15 16
23 23 23 22 20 19 19 18 17 16 17 17 16 16 16 16 16 16 15 15 15 14 14 13 12 12 13 12 11 11 11 11 10 10 10 10 9 9 8 7 6 5 4 4 4 4 4 4 4 4 5 4 5 6 7 7 8 10 12 14 14 14 15
24 22 22 21 21 20 19 18 18 17 17 17 17 16 16 16 16 16 15 15 15 15 14 14 13 13 13 12 12 11 11 11 10 10 10 10 9 8 8 7 6 5 4 4 3 3 4 4 3 4 5 5 5 6 7 8 8 10 11 13 14 13 14
25 23 22 22 22 20 19 18 18 17 16 17 17 17 17 16 16 16 15 15 15 15 14 14 14 14 13 13 12 11 11 11 10 10 10 9 9 8 8 7 7 5 4 4 3 3 3 3 3 4 5 6 6 7 8 8 8 9 11 12 12 13 14
26 24 22 23 22 20 19 18 18 17 16 17 17 17 17 16 16 16 16 15 15 15 15 15 14 14 14 14 13 12 12 11 11 10 10 9 9 8 8 7 7 6 5 4 3 3 2 2 3 4 5 6 7 7 8 8 8 9 10 11 11 12 13
25 23 22 23 22 20 19 18 17 16 16 17 17 17 17 16 16 16 16 16 15 15 15 15 15 15 14 14 13 13 12 12 11 11 10 10 9 9 8 8 7 6 5 5 4 4 3 2 2 4 5 6 7 7 7 8 8 9 10 10 10 11 13
23 22 22 22 21 19 19 18 16 16 16 16 16 16 16 16 16 16 16 16 15 15 15 15 15 16 15 14 14 13 12 12 12 11 11 10 9 9 9 8 7 7 7 8 7 7 7 7 5 5 5 6 7 7 8 8 8 9 10 10 10 11 13
22 22 22 22 21 20 19 18 16 16 16 16 16 16 16 16 16 16 16 16 16 15 15 14 16 17 16 15 14 13 13 12 12 12 11 11 10 9 9 9 8 9 9 9 9 9 9 9 9 8 7 7 7 7 7 8 8 9 10 10 10 12 13
22 22 22 21 20 19 18 17 16 16 17 17 17 17 17 17 17 17 17 17 16 16 14 15 19 20 18 16 15 12 12 12 12 12 11 11 11 10 10 9 8 6 5 5 5 6 8 9 9 9 8 9 10 10 9 8 8 9 10 9 10 12 12
23 22 21 21 21 22 21 20 19 18 18 18 18 17 17 17 17 16 17 17 16 15 14 16 20 22 20 18 16 13 12 12 11 11 11 11 11 10 10 9 7 4 4 6 5 2 1 4 6 7 6 6 8 10 11 10 10 9 9 10 10 11 12
23 21 22 23 23 22 23 22 20 19 18 17 17 17 16 16 16 16 16 16 16 15 14 15 20 24 23 20 18 15 11 11 11 11 11 11 10 10 10 9 8 6 6 7 6 5 4 3 4 5 5 4 4 6 9 11 11 11 10 9 10 11 12
23 23 25 26 24 22 22 22 19 18 18 17 16 16 17 16 16 16 16 16 16 15 14 15 18 24 24 21 20 15 9 10 12 10 11 10 9 10 10 9 8 7 6 5 4 4 4 3 3 3 4 4 5 5 6 9 10 10 10 9 9 11 12
27 27 28 27 24 23 24 21 19 18 17 17 16 16 16 16 16 16 16 15 15 15 15 15 18 23 25 23 22 15 8 9 12 10 10 10 8 9 9 8 8 8 7 5 5 6 6 4 3 2 2 3 4 5 4 5 8 9 9 8 9 11 12
32 28 26 26 24 23 22 21 19 18 17 16 15 14 15 15 15 15 15 15 15 14 15 15 18 22 23 24 24 15 8 10 12 10 10 11 9 9 9 8 7 7 7 6 5 6 7 5 3 2 2 2 3 4 4 6 10 11 11 11 11 12 14
33 29 28 28 26 22 22 21 20 18 17 16 15 13 13 13 13 13 14 14 14 13 14 15 17 20 21 24 25 16 9 10 12 10 11 11 9 9 9 9 8 7 8 8 6 5 8 6 2 2 3 3 4 4 3 7 10 11 13 14 14 15 17
33 32 33 33 27 22 21 22 23 23 23 22 19 16 13 11 11 12 13 14 13 12 13 15 18 20 20 23 25 17 10 11 12 11 11 11 10 10 10 12 10 7 8 10 7 5 8 5 1 3 3 3 4 4 4 7 10 10 12 13 14 15 16
31 34 36 34 27 22 23 25 26 26 24 24 22 19 15 12 10 9 10 12 13 12 12 14 18 21 21 23 24 19 12 10 12 11 11 12 11 10 10 13 14 10 9 11 9 6 7 5 1 2 3 4 5 4 6 9 10 11 12 13 13 14 14
26 31 36 34 28 26 27 27 25 21 18 18 19 20 19 17 14 12 10 11 13 13 12 13 18 23 23 22 24 21 14 10 11 12 11 11 12 11 9 12 16 15 12 11 9 6 6 5 3 2 3 5 5 5 8 10 10 11 13 13 13 13 13
25 30 34 31 26 25 25 24 21 18 16 18 20 22 23 21 19 17 15 14 14 15 12 10 14 22 25 23 23 23 17 10 7 10 12 11 11 12 11 11 15 17 15 12 9 7 5 4 3 2 3 5 6 7 9 11 11 12 13 12 12 12 13
27 31 32 28 25 24 23 21 20 18 18 20 21 22 21 19 17 16 15 14 14 15 14 11 12 19 25 25 23 23 21 13 6 4 9 11 11 11 11 12 15 15 14 12 9 7 5 4 3 3 4 6 7 7 8 9 11 12 11 10 11 12 12
28 30 31 29 28 26 23 20 19 18 18 19 18 17 17 17 15 15 15 14 14 15 15 15 15 19 25 27 25 23 23 18 9 4 5 8 11 12 10 11 15 15 12 11 9 7 6 5 4 4 4 5 6 7 7 10 12 11 10 10 11 11 12
28 30 29 28 27 25 23 21 19 18 19 18 17 16 16 16 16 15 14 14 14 15 15 15 17 20 23 26 26 24 23 21 15 9 6 5 6 8 9 10 13 12 11 10 10 8 7 7 6 6 6 6 7 7 9 12 12 10 9 10 10 10 12
Wind_Direction
166 165 162 153 147 149 150 140 134 133 123 121 112 110 120 128 130 119 111 109 108 107 104 101 95 92 92 89 90 90 88 89 94 104 106 107 101 83 69 64 64 56 51 42 12 347 288 178 162 173 165 150 140 342 319 314 314 316 312 326 334 333 339
169 160 159 163 161 161 166 150 133 134 129 119 116 123 127 127 128 116 109 109 107 106 104 101 98 95 93 90 90 90 88 85 82 91 99 97 94 90 81 72 70 70 65 49 29 8 348 6 143 165 176 176 193 207 270 303 288 291 299 315 328 335 342
166 159 161 169 168 165 165 154 139 134 134 136 133 133 134 130 125 117 114 112 106 106 104 103 103 100 97 94 92 92 92 89 84 84 89 88 82 75 71 76 81 80 77 59 38 29 16 11 36 49 181 204 203 183 183 306 286 287 313 325 334 340 345
166 165 164 165 165 163 161 154 148 149 156 160 152 144 141 133 123 119 120 115 109 107 105 104 104 104 104 100 94 90 90 88 87 86 84 84 81 75 70 71 73 68 69 65 41 30 29 15 348 359 10 320 287 162 161 272 270 326 356 351 349 349 348
171 170 168 165 163 164 161 153 154 165 168 166 163 155 146 138 129 125 122 117 114 112 111 110 108 108 107 104 97 93 92 89 88 88 85 84 83 81 77 74 76 72 65 61 46 35 30 15 353 345 10 354 337 86 130 181 230 10 10 1 355 355 353
175 174 171 166 165 165 163 159 161 170 173 172 169 160 151 143 135 131 128 123 121 118 117 116 114 114 112 109 105 100 99 94 92 93 90 88 88 89 88 81 78 75 66 58 49 42 32 25 20 3 358 358 344 356 48 98 47 17 11 3 358 357 355
176 175 172 170 170 166 164 165 168 172 174 175 170 160 154 149 139 136 131 126 125 122 122 121 119 119 117 115 112 106 102 99 97 98 95 94 93 90 91 87 79 74 66 57 51 48 41 35 34 15 355 346 358 4 9 42 38 21 7 1 360 360 356
174 173 171 172 171 168 167 168 170 173 170 170 168 158 153 148 140 136 132 128 128 127 126 125 123 123 121 120 116 109 106 104 102 102 100 98 95 91 89 87 82 74 65 57 52 48 45 41 36 23 8 358 19 23 9 19 30 21 6 358 357 3 358
173 173 170 170 170 169 169 167 169 173 169 166 163 156 151 147 141 137 135 133 132 132 131 130 127 126 125 122 119 114 112 111 109 108 105 99 95 92 89 86 83 75 65 59 56 49 46 44 38 31 27 20 12 13 10 16 23 13 4 358 352 359 359
174 173 168 167 169 169 167 164 164 167 169 166 159 155 152 147 142 140 138 136 136 136 135 133 131 129 128 125 123 121 120 120 117 112 109 104 100 97 93 88 85 80 70 63 59 53 47 45 41 37 38 31 18 10 6 4 15 3 355 354 351 350 351
172 171 170 169 169 167 162 157 158 163 167 164 158 155 152 147 144 143 142 140 139 139 137 136 135 134 133 129 127 128 128 127 123 116 112 109 106 102 98 93 89 86 78 70 63 58 50 45 44 41 40 37 28 22 6 345 2 1 346 344 349 345 342
172 172 173 170 166 162 155 151 157 162 163 160 158 155 151 149 149 147 146 144 142 142 141 140 140 139 136 133 133 134 135 134 127 121 118 113 110 107 104 101 97 94 88 79 70 61 55 47 45 41 38 37 30 22 4 341 338 347 340 337 339 339 337
174 174 171 168 164 158 152 152 159 163 161 160 158 155 154 153 153 152 150 147 146 147 146 146 145 143 140 140 141 141 141 139 131 127 125 119 115 112 109 107 104 102 98 90 77 66 61 52 47 43 33 30 26 15 360 344 325 323 332 333 331 333 336
175 171 168 166 161 154 151 155 160 162 161 160 158 157 158 158 158 157 153 151 151 151 152 151 149 147 147 146 145 144 144 142 136 132 129 123 118 116 114 110 105 99 96 89 79 71 64 54 49 44 31 23 20 11 357 345 327 317 324 331 331 331 334
174 168 164 162 158 155 155 157 160 161 161 161 162 162 162 162 162 158 155 155 155 155 156 155 153 152 152 149 146 146 147 144 139 136 132 127 124 121 119 115 109 102 94 84 75 68 60 53 50 40 28 18 9 3 354 341 325 316 320 328 331 331 333
171 167 166 163 160 158 157 157 161 163 162 163 165 167 166 165 163 160 158 158 158 159 159 157 157 156 154 152 149 148 147 144 142 140 135 131 129 126 124 119 113 108 100 90 79 67 56 50 48 35 21 12 358 350 345 331 317 315 317 322 328 331 333
168 166 168 166 162 159 157 160 164 165 165 166 167 169 168 166 164 162 161 161 161 162 162 159 160 159 157 154 151 148 147 147 145 143 138 135 133 130 127 122 118 113 105 96 84 71 57 46 45 34 17 4 357 348 338 323 313 314 315 317 323 329 331
167 166 168 166 163 162 160 161 165 167 168 168 169 169 168 167 166 165 165 165 163 163 163 162 162 162 158 154 151 150 149 149 148 143 139 137 135 131 128 123 118 114 108 97 82 67 51 41 36 33 20 4 358 347 332 322 317 315 313 314 320 327 332
169 170 168 165 162 162 163 163 165 168 170 170 170 170 169 169 169 169 168 167 166 164 163 164 165 163 159 155 153 152 151 150 148 144 141 138 136 134 129 122 113 108 104 95 80 62 48 41 36 30 18 5 358 347 332 325 322 319 318 319 322 328 335
172 174 168 164 162 162 165 164 164 169 171 171 172 171 171 171 171 172 171 169 167 165 164 167 168 165 161 158 156 154 154 152 149 147 146 142 138 134 128 122 112 103 98 91 76 54 38 36 33 30 19 4 352 343 335 330 329 327 325 325 329 334 336
172 170 163 162 162 163 164 163 165 171 172 173 174 173 173 172 172 173 173 170 168 166 167 171 171 168 165 161 158 158 159 157 154 152 149 144 142 137 130 120 109 106 110 116 108 88 84 90 53 30 19 6 354 347 342 337 336 337 336 334 334 337 337
167 162 159 159 160 162 164 163 167 171 172 174 175 175 175 174 174 175 174 171 169 168 172 175 174 172 169 163 161 162 163 161 158 157 153 151 148 141 132 122 118 125 125 120 114 101 97 100 90 62 31 10 359 353 348 345 345 344 340 338 338 340 339
160 157 158 158 160 162 162 162 167 171 173 175 175 176 177 176 178 178 175 173 172 172 176 180 178 175 171 166 164 165 167 166 165 163 161 159 156 146 137 132 129 126 114 103 99 98 96 96 91 82 67 49 32 15 358 350 351 349 342 340 342 342 340
156 156 157 156 159 160 159 163 170 173 175 177 177 178 179 178 181 181 177 176 175 175 182 187 182 178 173 168 165 168 171 171 170 170 168 165 163 156 148 147 144 131 117 107 96 85 84 86 83 79 69 57 44 33 20 5 354 349 345 341 341 342 340
156 157 156 156 159 161 161 166 174 176 178 179 178 179 180 180 181 182 179 179 178 178 187 194 188 182 176 169 166 169 175 177 176 176 174 172 169 164 160 162 164 169 185 192 200 215 49 50 46 48 47 37 28 25 22 16 5 355 346 335 334 339 339
160 158 157 160 163 164 164 168 174 177 177 178 178 178 180 182 181 182 182 181 181 181 187 196 193 186 180 173 169 170 176 182 184 182 180 178 173 170 168 169 172 174 177 183 196 220 236 273 328 360 2 343 349 4 9 10 5 357 345 328 323 330 333
162 161 161 163 164 165 168 170 173 175 174 176 179 179 179 182 182 183 184 184 183 183 189 198 197 190 184 176 172 175 181 188 188 187 185 182 177 175 175 176 181 181 178 182 196 205 214 243 272 305 311 290 286 302 336 357 356 347 337 322 314 321 324
160 163 164 165 166 169 171 170 170 172 173 176 181 180 179 180 182 185 187 187 185 187 194 199 196 190 187 180 176 180 194 194 190 190 187 183 181 180 181 184 187 181 177 187 199 195 195 212 235 267 280 267 272 267 270 323 335 335 331 316 308 313 317
163 164 164 166 170 173 173 171 172 173 172 174 179 181 179 180 182 185 188 189 187 188 194 200 195 189 187 182 181 188 208 199 193 192 187 186 186 183 184 188 187 181 179 190 206 190 176 179 204 264 285 275 286 273 261 306 324 334 334 325 322 325 326
166 169 171 172 173 174 172 171 170 170 167 167 171 176 177 179 182 186 189 191 190 187 189 196 196 190 186 184 185 196 214 201 195 195 189 189 190 187 186 190 189 186 186 197 216 190 163 159 201 273 280 280 290 287 293 318 323 327 327 325 329 331 328
171 177 180 180 177 173 171 171 172 171 169 167 166 170 173 176 181 188 192 194 193 191 191 194 196 194 189 187 188 198 213 203 197 198 192 190 195 193 192 195 192 182 191 208 221 194 167 161 259 291 277 287 292 294 318 326 322 321 320 319 323 325 325
176 181 183 182 176 169 169 173 174 172 169 168 167 167 167 170 178 187 195 198 198 197 200 202 202 198 194 191 191 199 216 211 198 198 195 192 198 198 193 200 199 186 190 211 217 196 174 169 197 297 288 291 295 306 322 321 318 319 316 315 320 325 328
175 179 182 182 176 172 172 173 171 167 166 165 162 160 161 164 170 178 191 204 205 203 206 207 204 200 197 196 196 201 217 224 204 201 201 196 198 198 189 196 204 202 203 211 209 191 176 173 180 235 292 301 300 305 310 312 317 314 307 308 319 327 330
173 179 181 178 172 170 171 170 166 164 164 164 163 166 171 173 175 178 188 200 204 202 201 202 205 205 203 202 202 204 216 235 222 203 204 202 201 203 196 193 202 207 209 209 202 188 182 181 177 193 266 284 284 290 300 308 311 306 303 309 322 329 332
175 178 178 174 169 168 168 168 166 163 164 167 169 172 175 175 175 178 184 192 195 194 193 193 205 211 209 208 209 208 214 228 240 208 209 211 207 207 206 201 202 207 210 208 202 198 201 200 194 213 245 265 275 286 301 305 299 298 309 322 326 329 334
174 173 174 173 172 170 168 165 165 165 167 169 170 172 173 174 176 178 180 184 187 190 193 198 207 214 212 211 213 214 216 223 237 248 233 226 218 216 215 201 197 204 213 213 209 213 220 222 230 242 252 271 283 287 296 296 289 293 313 324 325 330 335
173 173 174 173 171 170 168 165 166 171 174 175 176 177 177 177 178 179 179 181 186 191 193 197 205 211 213 212 214 218 219 223 232 236 240 267 259 231 214 196 191 203 219 220 216 222 233 238 244 250 260 277 283 281 284 287 287 297 316 321 324 331 333
Height
816 818 820 822 824 826 827 828 829 830 832 832 833 833 833 834 834 835 835 834 835 835 836 836 836 837 837 838 838 838 839 839 840 840 840 840 840 841 841 840 839 838 838 838 838 837 836 838 841 843 843 844 844 844 844 843 842 841 840 839 838 837 835
815 817 819 820 822 824 826 828 829 830 831 832 833 833 834 834 834 835 835 835 836 836 836 836 836 836 837 838 838 839 839 840 840 840 841 841 841 841 841 841 840 840 839 839 839 839 836 835 837 839 841 842 843 843 843 842 841 840 839 838 837 836 835
814 816 819 819 820 823 826 828 828 830 831 832 833 834 834 834 834 835 835 836 836 836 836 836 837 837 838 838 839 839 840 840 841 841 841 842 842 842 842 841 841 841 841 841 840 840 839 837 837 837 838 839 839 841 842 841 840 839 838 838 837 836 835
813 815 817 818 819 822 825 826 828 829 831 832 833 834 834 835 834 835 836 836 836 836 837 837 838 838 839 839 840 840 841 841 841 842 842 842 842 843 843 842 843 843 842 843 843 842 841 840 839 838 837 837 835 837 840 840 839 838 837 837 836 835 834
812 813 815 816 818 820 822 824 826 829 830 832 834 834 834 835 835 835 836 837 837 837 838 838 839 839 840 841 841 842 842 842 843 843 843 843 844 844 844 844 844 844 844 844 844 844 843 843 841 838 837 837 835 834 836 838 837 836 836 836 835 834 834
810 812 814 815 817 818 820 822 825 828 830 832 833 833 834 834 835 836 837 837 837 838 838 839 840 841 842 842 843 843 843 843 844 844 844 844 845 845 845 845 845 845 845 845 845 845 845 844 843 841 839 837 836 834 834 834 835 835 836 835 835 834 833
809 811 813 815 816 818 819 821 824 827 829 831 832 833 833 834 835 836 837 837 838 839 839 840 841 842 843 843 844 844 844 845 845 845 845 846 846 846 846 846 846 846 846 846 846 846 846 845 845 844 841 838 836 835 833 833 834 835 835 835 834 834 833
808 810 812 814 815 817 819 821 824 826 828 830 831 832 833 834 834 835 837 837 838 839 840 841 842 843 844 844 845 845 845 845 846 846 847 847 846 846 846 847 847 847 847 847 847 847 847 847 846 846 844 841 838 836 835 834 835 836 836 836 835 834 833
807 809 811 813 814 816 818 821 823 825 826 828 830 831 832 833 834 835 836 837 838 840 840 841 842 843 844 845 845 846 846 846 847 847 847 847 847 847 847 847 847 847 848 848 848 848 848 847 847 846 845 844 841 839 837 836 836 837 837 836 835 833 833
806 808 809 812 814 816 819 821 823 825 826 828 829 831 832 832 834 835 836 837 839 840 841 841 842 843 845 845 846 846 847 847 848 848 848 848 848 848 848 848 848 848 849 849 849 849 848 848 848 847 846 846 844 842 841 839 838 838 837 836 835 833 832
805 807 809 811 814 816 818 820 822 825 826 827 829 830 831 832 833 835 836 837 838 840 841 842 843 844 845 846 846 847 847 848 848 848 848 848 848 848 848 849 849 849 850 850 850 849 849 849 848 848 847 846 846 845 844 842 840 838 838 837 836 834 832
804 806 808 811 813 815 816 818 821 824 825 827 828 829 830 831 833 834 836 837 838 839 841 842 843 844 845 846 847 847 848 848 849 849 849 849 849 849 849 850 850 850 851 851 850 850 849 849 848 848 847 847 847 846 846 844 842 840 839 838 836 835 833
803 806 807 809 812 813 814 817 820 823 824 826 827 828 830 831 833 834 835 837 838 839 841 842 843 844 846 847 847 848 848 849 849 849 849 849 849 850 850 851 851 851 851 851 851 850 850 849 849 848 848 847 847 847 846 845 843 841 840 839 837 835 834
802 804 806 808 811 812 813 816 820 822 823 825 826 828 829 831 833 834 835 836 838 839 841 842 843 845 846 847 848 848 849 849 849 850 850 850 850 851 851 852 852 852 852 851 851 851 850 850 849 848 848 848 847 847 846 846 844 842 840 839 837 835 834
801 803 804 807 809 811 813 816 819 821 822 824 826 827 829 831 832 833 834 836 838 839 841 842 843 844 846 847 848 848 849 849 850 850 850 850 851 851 852 852 853 852 852 852 851 851 850 850 849 849 849 848 848 848 847 846 845 843 840 838 837 835 833
800 801 803 806 808 810 813 815 818 820 822 824 825 827 829 830 832 833 834 836 837 839 841 842 843 844 846 847 847 848 849 850 850 850 850 851 851 852 852 853 853 853 853 853 852 852 851 850 850 849 849 849 848 848 847 847 846 844 842 839 837 835 833
798 799 802 805 807 810 812 815 817 819 821 823 825 827 829 830 831 833 834 836 837 839 840 841 843 845 845 846 847 848 849 850 850 851 851 851 851 852 852 853 853 853 853 853 852 852 851 851 850 850 849 849 848 848 847 847 846 845 843 840 837 836 833
796 798 801 804 807 809 812 814 817 819 821 823 825 826 828 830 831 832 833 835 836 838 840 841 843 844 845 846 847 848 849 850 850 851 851 851 852 852 853 853 853 853 853 853 853 852 852 851 851 850 850 849 849 848 847 847 846 845 843 840 838 835 834
794 798 801 803 806 809 811 814 816 818 820 822 824 826 828 829 830 832 833 834 836 838 839 841 842 844 845 845 846 848 849 850 850 851 851 852 852 852 852 853 853 853 853 853 853 853 852 852 851 851 850 850 849 848 848 846 845 844 842 840 838 835 833
794 798 800 802 805 808 811 813 815 818 820 822 824 825 827 828 830 831 832 834 835 837 838 840 842 843 844 845 846 847 848 849 850 851 851 852 852 852 852 852 853 853 853 853 853 853 852 852 852 851 850 850 849 849 848 846 845 843 842 840 838 835 833
794 797 799 802 805 808 811 813 815 818 820 821 823 825 826 828 829 830 832 833 835 836 838 840 841 842 843 844 845 847 848 849 850 851 851 852 852 853 852 852 853 852 852 852 852 852 852 851 851 851 851 850 849 849 848 846 845 843 841 839 838 836 834
793 796 798 801 805 808 810 813 815 818 820 821 823 825 826 827 829 830 831 833 834 836 837 839 840 841 842 843 844 846 848 849 850 851 851 852 852 852 852 852 852 852 852 852 852 852 851 851 851 851 851 850 850 849 848 847 845 843 842 840 838 836 834
791 794 798 801 804 807 809 812 815 818 819 821 822 824 825 826 828 829 830 832 833 835 837 838 839 840 842 842 844 846 847 848 849 850 851 851 852 852 852 852 852 852 852 852 852 852 852 851 850 850 850 850 850 849 848 847 846 844 842 840 838 837 834
790 793 797 800 804 807 809 812 814 816 818 819 820 821 823 825 826 828 829 831 832 834 836 836 838 840 841 841 843 845 847 848 849 850 850 851 851 851 852 852 852 852 852 852 852 852 852 851 850 850 850 849 849 849 848 847 846 844 842 840 839 837 835
789 793 796 799 802 804 806 808 811 813 815 816 818 819 821 823 824 826 828 829 831 833 834 835 836 839 840 840 842 844 846 848 848 849 850 850 850 851 851 852 853 853 852 852 852 852 851 851 850 850 849 849 848 848 847 846 845 844 843 841 839 838 836
788 792 794 797 801 803 805 806 808 810 812 815 817 818 820 822 824 826 827 828 830 832 833 834 836 838 839 840 841 843 845 847 848 848 849 849 850 850 850 851 852 853 852 852 852 852 851 851 850 849 848 848 847 847 846 845 845 844 843 841 840 838 836
787 790 792 795 799 801 804 805 807 809 811 814 816 817 819 821 823 825 826 828 829 831 831 832 835 837 838 839 841 842 844 846 847 847 848 848 849 849 850 851 851 852 852 852 852 851 851 851 850 849 848 848 847 846 846 845 844 843 842 841 840 838 836
784 787 790 794 796 799 801 803 806 809 810 813 815 816 817 819 821 824 825 827 829 829 830 831 833 836 837 839 841 842 844 845 846 847 847 848 848 848 849 850 850 851 851 851 851 850 850 850 849 849 848 848 847 846 845 845 844 843 842 841 839 838 835
782 786 789 792 794 797 799 802 805 808 809 812 814 816 817 818 820 823 825 826 828 829 829 830 832 834 836 838 840 842 843 844 845 845 846 847 847 848 848 849 850 850 850 850 850 849 848 848 848 848 848 847 847 846 845 844 843 842 841 839 838 836 834
779 783 786 789 792 795 797 800 803 805 807 810 813 816 817 818 820 822 824 826 828 828 829 830 832 834 835 837 839 841 842 843 843 844 845 846 846 847 848 848 849 849 849 849 849 848 848 847 847 847 847 846 846 845 844 844 842 840 839 838 836 834 832
776 779 783 786 789 792 795 797 799 801 803 805 809 813 817 819 821 822 824 826 828 828 829 830 831 833 834 836 838 840 841 842 842 843 843 844 845 846 846 847 847 848 848 847 847 847 847 847 846 846 846 845 845 844 844 843 841 840 838 836 834 832 830
773 776 780 783 787 790 792 794 797 798 800 803 806 810 814 818 821 823 825 826 827 828 829 830 831 832 833 836 837 839 840 840 841 842 842 843 844 845 845 846 846 846 846 846 846 846 846 845 845 846 846 845 844 843 843 842 840 839 837 835 833 831 829
772 775 778 781 784 787 790 793 796 799 802 804 805 807 810 813 817 821 824 827 827 828 828 828 830 831 832 834 836 837 839 839 839 840 841 842 843 843 844 844 845 845 845 845 846 845 845 844 844 844 845 844 843 843 842 841 839 838 835 834 832 831 829
771 773 777 780 783 786 789 792 796 799 801 803 805 806 808 810 812 816 820 824 826 827 827 827 829 832 833 834 835 836 837 838 838 839 840 840 841 842 842 843 843 844 844 845 845 845 844 844 843 843 843 843 843 842 841 840 838 836 834 833 831 830 828
769 772 776 779 782 786 789 792 795 798 800 802 804 807 808 810 812 815 818 821 822 824 824 825 828 832 834 833 834 836 836 836 837 838 839 840 840 840 841 841 841 842 843 844 844 844 844 843 842 842 842 842 842 841 840 839 837 835 833 832 831 829 828
769 772 775 778 781 784 788 792 795 797 800 802 804 806 808 810 812 814 816 818 820 822 823 822 823 828 832 833 833 835 835 835 836 837 838 839 839 839 840 840 839 841 842 843 843 844 843 842 842 841 841 841 841 840 839 838 836 834 833 831 830 829 828
769 771 774 777 780 784 787 790 793 796 798 800 803 805 806 808 810 811 814 816 818 820 822 821 821 824 829 831 832 833 835 835 836 837 838 839 839 839 838 838 839 841 842 842 843 843 843 842 841 841 840 840 840 839 838 836 835 834 833 831 829 828 827